Pasco, WA
on Tuesday, February 12, 2013

Tuesday
Previous Day Next Day
Daily Summary
 ActualAverageRecord
Temperature
Mean Temperature °F 38°F  
Max Temperature 56°F 48°F 63°F (2011)
Min Temperature 26°F 28°F 17°F (2002)
Degree Days
Heating Degree Days 24 27  
Month to date heating degree days 316 330  
Since 1 July heating degree days 3227 3481  
Cooling Degree Days 0 0  
Month to date cooling degree days 0 0  
Year to date cooling degree days 0 0  
Moisture
Dew Point 34°F   
Average Humidity 75    
Maximum Humidity 100    
Minimum Humidity 50    
Precipitation
Precipitation 0.00 in in 0.43 in (1958)
Month to date precipitation T  
Year to date precipitation 0.36  
Snow
Snow 0.00 in in in ()
Snow Depth 0.00 in   
Wind
Wind Speed 5 mph   
Max Wind Speed 23 mph   
Max Gust Speed 29 mph   
Visibility 10 miles   
Events     

Key: T is trace of precipitation, MM is missing value
Source: NWS Daily Summary
Time(PST)TemperatureDew PointHumidity Pressure Visibility Wind DirectionWind SpeedGust SpeedPrecipitationEvents Conditions
12:53 AM 28.0°F 26.1°F 92% 30.29 in 7.0 miles NNW 3.5 mph - N/A   Clear
1:53 AM 27.0°F 25.0°F 92% 30.30 in 9.0 miles NNW 3.5 mph - N/A   Clear
2:53 AM 26.1°F 24.1°F 92% 30.30 in 9.0 miles East 3.5 mph - N/A   Clear
3:53 AM 27.0°F 26.1°F 96% 30.30 in 9.0 miles Calm Calm - N/A   Mostly Cloudy
4:53 AM 30.0°F 28.0°F 92% 30.31 in 9.0 miles Calm Calm - N/A   Scattered Clouds
5:53 AM 30.9°F 28.9°F 92% 30.31 in 9.0 miles Calm Calm - N/A   Scattered Clouds
6:53 AM 33.1°F 32.0°F 96% 30.33 in 10.0 miles Calm Calm - N/A   Mostly Cloudy
7:53 AM 34.0°F 32.0°F 92% 30.34 in 10.0 miles NW 3.5 mph - N/A   Overcast
8:53 AM 36.0°F 33.1°F 89% 30.35 in 10.0 miles Calm Calm - N/A   Mostly Cloudy
9:53 AM 39.9°F 35.1°F 83% 30.36 in 10.0 miles Calm Calm - N/A   Mostly Cloudy
10:53 AM 48.9°F 37.0°F 64% 30.34 in 10.0 miles South 4.6 mph - N/A   Scattered Clouds
11:53 AM 53.1°F 36.0°F 52% 30.34 in 10.0 miles SW 6.9 mph - N/A   Clear
12:53 PM 53.1°F 37.9°F 57% 30.33 in 10.0 miles SW 10.4 mph - N/A   Overcast
1:53 PM 55.0°F 39.0°F 55% 30.32 in 10.0 miles South 5.8 mph - N/A   Overcast
2:53 PM 54.0°F 39.9°F 59% 30.31 in 10.0 miles SSW 10.4 mph - N/A   Overcast
3:53 PM 53.1°F 39.9°F 61% 30.30 in 10.0 miles SSW 8.1 mph - N/A   Overcast
4:53 PM 53.1°F 39.0°F 59% 30.28 in 10.0 miles SW 15.0 mph 20.7 mph N/A   Mostly Cloudy
5:53 PM 52.0°F 37.9°F 59% 30.26 in 10.0 miles SW 18.4 mph 25.3 mph N/A   Scattered Clouds
6:53 PM 48.9°F 37.9°F 66% 30.27 in 10.0 miles WSW 12.7 mph - N/A   Clear
7:53 PM 48.9°F 37.0°F 64% 30.27 in 10.0 miles SW 13.8 mph - N/A   Mostly Cloudy
8:53 PM 48.9°F 36.0°F 61% 30.28 in 10.0 miles WSW 8.1 mph 18.4 mph N/A   Mostly Cloudy
9:53 PM 48.9°F 37.9°F 66% 30.27 in 10.0 miles SW 16.1 mph - N/A   Mostly Cloudy
10:53 PM 48.9°F 39.0°F 69% 30.27 in 10.0 miles SW 20.7 mph 25.3 mph N/A   Overcast
11:53 PM 48.0°F 37.0°F 66% 30.25 in 10.0 miles SW 15.0 mph 24.2 mph N/A   Clear
Moon Phase
Feb. 12 Feb. 17 Feb. 25 Mar. 04 Mar. 11
Sunrise:07:03 AM (PST) Moon Rise:07:51 AM (PST)2/12
Sunset:05:18 PM (PST) Moon Set:08:38 PM (PST)2/12

Copyright © 2014 The Weather Underground, Inc.